Saginaw, MI

12:07 PM EDT on September 24, 2017 (GMT -0400)
MBS International

Weather History for KMBS - October, 2013

Change the Weather History Date:

Saturday, October 12, 2013

  Actual Average Record
Temperature  
Mean Temperature 62 °F 51 °F  
Max Temperature 79 °F 61 °F 81 °F (2008)
Min Temperature 44 °F 41 °F 30 °F (2006)
Degree Days  
Heating Degree Days 3    
Month to date heating degree days 48  
Since 1 July heating degree days 208  
Cooling Degree Days 0    
Month to date cooling degree days 5  
Year to date cooling degree days 668  
Growing Degree Days 12 (Base 50)    
Moisture  
Dew Point 50 °F    
Average Humidity 64    
Maximum Humidity 93    
Minimum Humidity 35    
Precipitation  
Precipitation 0.00 in 0.08 in 0.37 in (2001)
Month to date precipitation 1.56 1.11  
Year to date precipitation 27.47 25.46  
Snow  
Snow 0.00 in - - ()
Month to date snowfall 0.0  
Since 1 July snowfall 0.0  
Since 1 September snowfall 0.0  
Snow Depth 0.00 in    
Sea Level Pressure  
Sea Level Pressure 30.07 in    
Wind  
Wind Speed 7 mph (SSE)    
Max Wind Speed 17 mph    
Max Gust Speed 22 mph    
Visibility 10 miles    
Events      
T = Trace of Precipitation, MM = Missing Value Source: NWS Daily Summary

Daily Weather History Graph

Daily Weather History Graph

Search for Another Location

Airport or City:

Trip Planner

Search our weather history database for the weather conditions in past years. The results will help you decide how hot, cold, wet, or windy it might be!

Date:

Astronomy

Oct. 12, 2013 Rise Set
Actual Time 7:47 AM EDT 6:57 PM EDT
Civil Twilight 7:18 AM EDT 7:26 PM EDT
Nautical Twilight 6:45 AM EDT 7:59 PM EDT
Astronomical Twilight 6:11 AM EDT 8:32 PM EDT
Moon 3:16 PM EDT (10/12) 12:38 AM EDT (10/12)
Length of Visible Light 12h 08m
Length of Day
11h 10m
First Quarter, 58% of the Moon is Illuminated
Oct 12
First Quarter
Oct 18
Full
Oct 26
Last Quarter
Nov 3
New
Nov 10
First Quarter

Hourly Weather History & Observations

Time (EDT) Temp. Windchill Dew Point Humidity Pressure Visibility Wind Dir Wind Speed Gust Speed Precip Events Conditions
12:53 AM 52.0 °F - 44.1 °F 74% 30.09 in 10.0 mi SE 5.8 mph - N/A   Clear
1:53 AM 51.1 °F - 44.1 °F 77% 30.10 in 10.0 mi ESE 3.5 mph - N/A   Clear
2:53 AM 51.1 °F - 44.1 °F 77% 30.10 in 10.0 mi Calm Calm - N/A   Clear
3:53 AM 48.0 °F - 43.0 °F 83% 30.10 in 10.0 mi Calm Calm - N/A   Clear
4:53 AM 46.0 °F 43.9 °F 43.0 °F 89% 30.11 in 10.0 mi East 4.6 mph - N/A   Clear
5:53 AM 46.9 °F - 44.1 °F 90% 30.10 in 10.0 mi East 4.6 mph - N/A   Clear
6:53 AM 48.0 °F - 46.0 °F 93% 30.11 in 9.0 mi Calm Calm - N/A   Clear
7:53 AM 44.1 °F 41.5 °F 42.1 °F 93% 30.11 in 5.0 mi East 4.6 mph - N/A   Clear
8:53 AM 51.1 °F - 48.0 °F 89% 30.12 in 6.0 mi Calm Calm - N/A   Clear
9:53 AM 59.0 °F - 54.0 °F 83% 30.11 in 10.0 mi South 8.1 mph - N/A   Clear
10:53 AM 64.9 °F - 54.0 °F 68% 30.09 in 10.0 mi SSW 6.9 mph - N/A   Clear
11:53 AM 69.1 °F - 52.0 °F 54% 30.09 in 10.0 mi SW 4.6 mph - N/A   Clear
12:53 PM 73.0 °F - 52.0 °F 48% 30.07 in 10.0 mi Variable 4.6 mph - N/A   Clear
1:53 PM 75.9 °F - 52.0 °F 43% 30.04 in 10.0 mi South 5.8 mph - N/A   Clear
2:53 PM 78.1 °F - 48.9 °F 36% 30.03 in 10.0 mi South 10.4 mph - N/A   Clear
3:53 PM 79.0 °F - 51.1 °F 38% 30.02 in 10.0 mi South 15.0 mph 19.6 mph N/A   Clear
4:53 PM 77.0 °F - 57.0 °F 50% 30.01 in 10.0 mi South 9.2 mph - N/A   Partly Cloudy
5:53 PM 75.0 °F - 55.9 °F 51% 30.01 in 10.0 mi South 10.4 mph - N/A   Partly Cloudy
6:53 PM 72.0 °F - 55.0 °F 55% 30.03 in 10.0 mi South 10.4 mph - N/A   Clear
7:53 PM 69.1 °F - 54.0 °F 58% 30.05 in 10.0 mi South 8.1 mph - N/A   Clear
8:53 PM 68.0 °F - 54.0 °F 61% 30.04 in 10.0 mi SSE 10.4 mph - N/A   Clear
9:53 PM 66.9 °F - 52.0 °F 59% 30.05 in 10.0 mi South 12.7 mph - N/A   Clear
10:53 PM 66.9 °F - 52.0 °F 59% 30.08 in 10.0 mi SW 11.5 mph - N/A   Mostly Cloudy
11:53 PM 64.9 °F - 54.0 °F 68% 30.07 in 10.0 mi South 5.8 mph - N/A   Overcast